| time (UTC) | temp C | wind direction | speed KPH | gust KPH | rain 1hr cm | rain 24hr cm | rain mn cm | humidity % | barometer mb |
| 20260905134555 | 16 | 259 | 1.6 | 11.3 | 0.00 | 0.69 | 0.00 | 73 | 1023.1 |
| 20260905133051 | 16 | 248 | 6.4 | 19.3 | 0.00 | 0.69 | 0.00 | 71 | 1023.0 |
| 20260905131553 | 17 | 273 | 3.2 | 20.9 | 0.00 | 0.69 | 0.00 | 70 | 1022.9 |
| 20260905130047 | 17 | 240 | 6.4 | 17.7 | 0.00 | 0.69 | 0.00 | 71 | 1022.9 |
| 20260905124550 | 16 | 276 | 4.8 | 22.5 | 0.00 | 0.69 | 0.00 | 70 | 1022.7 |
| 20260905123045 | 16 | 238 | 6.4 | 22.5 | 0.00 | 0.69 | 0.00 | 71 | 1022.7 |
| 20260905121543 | 16 | 248 | 3.2 | 14.5 | 0.00 | 0.69 | 0.00 | 69 | 1022.6 |
| 20260905120043 | 16 | 298 | 6.4 | 16.1 | 0.00 | 0.69 | 0.00 | 70 | 1022.4 |
| 20260905114540 | 16 | 280 | 9.7 | 22.5 | 0.00 | 0.69 | 0.00 | 71 | 1022.4 |
| 20260905113037 | 16 | 222 | 4.8 | 25.7 | 0.00 | 0.69 | 0.00 | 70 | 1022.1 |
| 20260905111535 | 16 | 301 | 6.4 | 25.7 | 0.00 | 0.69 | 0.00 | 73 | 1022.2 |
| 20260905110034 | 15 | 263 | 6.4 | 24.1 | 0.00 | 0.69 | 0.00 | 76 | 1022.1 |
| 20260905104541 | 15 | 326 | 6.4 | 19.3 | 0.00 | 0.69 | 0.00 | 75 | 1021.9 |
| 20260905103033 | 15 | 268 | 3.2 | 16.1 | 0.00 | 0.69 | 0.00 | 77 | 1022.0 |
| 20260905101528 | 15 | 246 | 6.4 | 24.1 | 0.00 | 0.69 | 0.00 | 77 | 1021.8 |
| 20260905100027 | 15 | 255 | 3.2 | 20.9 | 0.00 | 0.69 | 0.00 | 79 | 1021.6 |
| 20260905094524 | 14 | 292 | 3.2 | 17.7 | 0.00 | 0.69 | 0.00 | 80 | 1021.6 |
| 20260905093022 | 14 | 253 | 3.2 | 14.5 | 0.00 | 0.69 | 0.00 | 82 | 1021.5 |
| 20260905091521 | 14 | 249 | 3.2 | 24.1 | 0.00 | 0.69 | 0.00 | 82 | 1021.3 |
| 20260905090022 | 13 | 319 | 3.2 | 20.9 | 0.00 | 0.69 | 0.00 | 84 | 1021.1 |
| 20260905084522 | 13 | 203 | 4.8 | 19.3 | 0.00 | 0.69 | 0.00 | 85 | 1020.8 |
| 20260905083016 | 13 | 240 | 4.8 | 19.3 | 0.00 | 0.69 | 0.00 | 87 | 1020.6 |
| 20260905081511 | 13 | 288 | 4.8 | 19.3 | 0.00 | 0.69 | 0.00 | 88 | 1020.4 |
| 20260905080020 | 13 | 248 | 6.4 | 22.5 | 0.00 | 0.69 | 0.00 | 88 | 1020.4 |
| 20260905074508 | 13 | 259 | 6.4 | 14.5 | 0.00 | 0.69 | 0.00 | 89 | 1020.3 |
| 20260905073019 | 12 | 274 | 9.7 | 24.1 | 0.00 | 0.69 | 0.00 | 89 | 1020.0 |
| 20260905071505 | 12 | 244 | 8.0 | 20.9 | 0.00 | 0.69 | 0.00 | 89 | 1019.9 |
| 20260905070001 | 12 | 219 | 8.0 | 19.3 | 0.00 | 0.69 | 0.00 | 90 | 1019.5 |
| 20260905064602 | 12 | 236 | 1.6 | 17.7 | 0.00 | 0.69 | 0.00 | 91 | 1019.3 |
| 20260905063109 | 12 | 205 | 4.8 | 17.7 | 0.00 | 0.69 | 0.00 | 91 | 1019.3 |
| 20260905061609 | 12 | 240 | 3.2 | 17.7 | 0.00 | 0.69 | 0.00 | 91 | 1019.0 |
| 20260905060052 | 12 | 259 | 3.2 | 19.3 | 0.00 | 0.69 | 0.00 | 91 | 1019.0 |
| 20260905054550 | 12 | 262 | 4.8 | 16.1 | 0.00 | 0.69 | 0.00 | 92 | 1018.7 |
| 20260905053050 | 12 | 339 | 6.4 | 17.7 | 0.00 | 0.69 | 0.00 | 92 | 1018.5 |
| 20260905051546 | 12 | 259 | 3.2 | 9.7 | 0.00 | 0.69 | 0.00 | 92 | 1018.1 |
| 20260905050042 | 12 | 242 | 3.2 | 11.3 | 0.00 | 0.69 | 0.00 | 92 | 1017.8 |
| 20260905044539 | 12 | 248 | 3.2 | 12.9 | 0.00 | 0.69 | 0.00 | 92 | 1017.6 |
| 20260905043105 | 12 | 257 | 4.8 | 14.5 | 0.00 | 0.69 | 0.00 | 92 | 1017.5 |
| 20260905041536 | 12 | 287 | 3.2 | 17.7 | 0.00 | 0.69 | 0.00 | 92 | 1017.4 |
| 20260905040045 | 12 | 259 | 1.6 | 19.3 | 0.00 | 0.69 | 0.00 | 92 | 1017.3 |
| 20260905034533 | 12 | 290 | 4.8 | 12.9 | 0.00 | 0.69 | 0.00 | 92 | 1017.2 |
| 20260905033035 | 12 | 248 | 1.6 | 14.5 | 0.00 | 0.69 | 0.00 | 92 | 1017.2 |
| 20260905031530 | 12 | 297 | 0.0 | 11.3 | 0.00 | 0.69 | 0.00 | 92 | 1017.2 |
| 20260905030030 | 12 | 327 | 1.6 | 14.5 | 0.00 | 0.69 | 0.00 | 91 | 1017.2 |
| 20260905024527 | 13 | 355 | 0.0 | 11.3 | 0.00 | 0.69 | 0.00 | 91 | 1017.2 |
| 20260905023026 | 13 | 247 | 3.2 | 11.3 | 0.00 | 0.69 | 0.00 | 92 | 1017.0 |
| 20260905021530 | 13 | 270 | 1.6 | 11.3 | 0.00 | 0.69 | 0.00 | 92 | 1016.9 |
| 20260905020023 | 13 | 246 | 3.2 | 20.9 | 0.00 | 0.69 | 0.00 | 91 | 1016.8 |
| 20260905014521 | 13 | 328 | 1.6 | 9.7 | 0.00 | 0.69 | 0.00 | 92 | 1016.8 |
| 20260905013119 | 13 | 253 | 3.2 | 9.7 | 0.00 | 0.69 | 0.00 | 92 | 1016.7 |
| 20260905011519 | 13 | 267 | 1.6 | 9.7 | 0.00 | 0.69 | 0.00 | 92 | 1016.7 |
| 20260905010020 | 13 | 355 | 1.6 | 6.4 | 0.00 | 0.69 | 0.00 | 93 | 1016.7 |
| 20260905004518 | 13 | 325 | 1.6 | 6.4 | 0.00 | 0.81 | 0.00 | 92 | 1016.4 |
| 20260905003021 | 13 | 261 | 3.2 | 16.1 | 0.00 | 0.81 | 0.00 | 92 | 1016.4 |
| 20260905001514 | 13 | 254 | 1.6 | 6.4 | 0.00 | 0.81 | 0.00 | 92 | 1016.4 |
| 20260905000029 | 13 | 312 | 3.2 | 11.3 | 0.00 | 0.81 | 0.00 | 92 | 1016.3 |
| 20260904234512 | 13 | 18 | 1.6 | 12.9 | 0.00 | 0.81 | 0.00 | 91 | 1016.2 |
| 20260904233010 | 14 | 294 | 1.6 | 12.9 | 0.00 | 0.81 | 0.00 | 91 | 1016.4 |
| 20260904230008 | 14 | 318 | 1.6 | 9.7 | 0.00 | 0.81 | 0.00 | 92 | 1016.1 |
| 20260904224503 | 15 | 279 | 1.6 | 12.9 | 0.00 | 0.81 | 0.00 | 92 | 1015.8 |
| 20260904223001 | 15 | 316 | 8.0 | 24.1 | 0.00 | 0.81 | 0.00 | 92 | 1016.0 |
| 20260904221558 | 15 | 343 | 4.8 | 12.9 | 0.00 | 0.81 | 0.00 | 93 | 1015.6 |
| 20260904220112 | 15 | 234 | 1.6 | 12.9 | 0.00 | 0.81 | 0.00 | 93 | 1015.6 |
| 20260904214555 | 15 | 296 | 3.2 | 14.5 | 0.00 | 0.81 | 0.81 | 93 | 1015.5 |
| 20260904213055 | 15 | 338 | 4.8 | 14.5 | 0.00 | 0.81 | 0.81 | 93 | 1015.5 |
| 20260904211609 | 15 | 332 | 4.8 | 22.5 | 0.00 | 0.81 | 0.81 | 93 | 1015.5 |
| 20260904210055 | 15 | 258 | 4.8 | 17.7 | 0.00 | 0.81 | 0.81 | 94 | 1015.5 |
| 20260904204552 | 15 | 244 | 3.2 | 14.5 | 0.00 | 0.84 | 0.81 | 94 | 1015.2 |
| 20260904203053 | 15 | 259 | 4.8 | 14.5 | 0.00 | 0.84 | 0.81 | 94 | 1015.0 |
| 20260904201551 | 15 | 312 | 3.2 | 17.7 | 0.00 | 0.84 | 0.81 | 94 | 1015.1 |
| 20260904200053 | 15 | 247 | 4.8 | 16.1 | 0.00 | 0.84 | 0.81 | 94 | 1014.6 |
| 20260904194551 | 15 | 324 | 3.2 | 19.3 | 0.00 | 0.86 | 0.81 | 94 | 1014.8 |
| 20260904193047 | 15 | 262 | 3.2 | 17.7 | 0.03 | 0.86 | 0.81 | 94 | 1014.6 |
| 20260904191548 | 15 | 105 | 3.2 | 16.1 | 0.05 | 0.86 | 0.81 | 94 | 1014.4 |
| 20260904190048 | 15 | 236 | 4.8 | 17.7 | 0.18 | 0.86 | 0.81 | 94 | 1014.1 |
| 20260904184552 | 15 | 15 | 4.8 | 22.5 | 0.23 | 0.86 | 0.81 | 94 | 1013.9 |
| 20260904183051 | 15 | 266 | 4.8 | 20.9 | 0.41 | 0.84 | 0.79 | 94 | 1013.7 |
| 20260904181543 | 15 | 259 | 1.6 | 14.5 | 0.51 | 0.81 | 0.79 | 93 | 1013.6 |
| 20260904180058 | 15 | 244 | 3.2 | 14.5 | 0.46 | 0.69 | 0.64 | 93 | 1013.3 |
| 20260904174543 | 16 | 254 | 4.8 | 20.9 | 0.43 | 0.61 | 0.58 | 92 | 1013.4 |
| 20260904173042 | 16 | 330 | 3.2 | 12.9 | 0.25 | 0.43 | 0.41 | 91 | 1013.3 |
| 20260904171537 | 16 | 313 | 4.8 | 17.7 | 0.13 | 0.30 | 0.25 | 89 | 1013.0 |
| 20260904170042 | 18 | 222 | 3.2 | 19.3 | 0.05 | 0.23 | 0.18 | 85 | 1012.9 |
| 20260904164533 | 20 | 251 | 8.0 | 35.4 | 0.00 | 0.18 | 0.15 | 80 | 1012.4 |
| 20260904163031 | 20 | 355 | 9.7 | 38.6 | 0.00 | 0.18 | 0.15 | 79 | 1012.4 |
| 20260904161532 | 20 | 246 | 9.7 | 32.2 | 0.00 | 0.18 | 0.15 | 79 | 1012.5 |
| 20260904160030 | 20 | 209 | 16.1 | 37.0 | 0.00 | 0.18 | 0.15 | 78 | 1012.5 |
| 20260904154530 | 20 | 302 | 12.9 | 32.2 | 0.00 | 0.18 | 0.15 | 78 | 1012.5 |
| 20260904153028 | 20 | 210 | 14.5 | 38.6 | 0.00 | 0.18 | 0.15 | 77 | 1012.5 |
| 20260904151527 | 21 | 350 | 6.4 | 32.2 | 0.00 | 0.18 | 0.15 | 78 | 1012.6 |
| 20260904150034 | 21 | 252 | 6.4 | 27.4 | 0.00 | 0.18 | 0.15 | 78 | 1012.7 |
| 20260904144528 | 21 | 298 | 11.3 | 25.7 | 0.00 | 0.18 | 0.15 | 75 | 1012.7 |
| 20260904143026 | 21 | 241 | 8.0 | 37.0 | 0.00 | 0.18 | 0.15 | 73 | 1012.7 |
| 20260904141533 | 22 | 332 | 8.0 | 32.2 | 0.00 | 0.18 | 0.15 | 73 | 1012.6 |
| 20260904140044 | 21 | 316 | 11.3 | 38.6 | 0.00 | 0.18 | 0.15 | 74 | 1012.6 |